DW8266 Weather Reports


Display with metric or nautical units.
time (UTC)temp
F
wind
direction
speed
MPH
gust
MPH
rain 1hr
in
rain 24hr
in
rain mn
in
humidity
%
barometer
mb
20260903153057 87 190 1.0 4.0 0.00 0.00 0.00 87 1014.5
20260903151557 87 215 2.0 5.0 0.00 0.00 0.00 87 1014.5
20260903144559 85 171 1.0 4.0 0.00 0.00 0.00 89 1014.5
20260903143101 85 174 0.0 3.0 0.00 0.00 0.00 89 1014.6
20260903141559 84 175 0.0 5.0 0.00 0.00 0.00 90 1014.6
20260903140003 84 172 0.0 2.0 0.00 0.00 0.00 90 1014.4
20260903134600 83 179 0.0 2.0 0.00 0.00 0.00 90 1014.5
20260903133059 83 179 0.0 0.0 0.00 0.00 0.00 90 1014.6
20260903131606 83 179 0.0 1.0 0.00 0.00 0.00 90 1014.4
20260903130001 82 179 0.0 2.0 0.00 0.00 0.00 90 1014.2
20260903124619 82 154 1.0 5.0 0.00 0.00 0.00 90 1013.8
20260903123057 83 170 0.0 3.0 0.00 0.00 0.00 90 1013.6
20260903121557 83 170 1.0 6.0 0.00 0.00 0.00 89 1013.4
20260903120057 83 165 1.0 5.0 0.00 0.00 0.00 89 1013.5
20260903114608 82 189 1.0 5.0 0.00 0.00 0.00 88 1013.5
20260903113108 82 153 3.0 6.0 0.00 0.00 0.00 86 1013.6
20260903111600 82 140 2.0 9.0 0.00 0.00 0.00 87 1013.4
20260903110105 82 169 3.0 6.0 0.00 0.00 0.00 89 1013.5
20260903110003 82 153 3.0 6.0 0.00 0.00 0.00 89 1013.5
20260903104501 83 190 2.0 8.0 0.00 0.00 0.00 90 1013.3
20260903103101 83 187 2.0 6.0 0.00 0.00 0.00 89 1013.1
20260903094605 83 181 1.0 6.0 0.00 0.00 0.00 89 1013.1
20260903093102 83 207 2.0 7.0 0.00 0.00 0.00 89 1013.2
20260903091600 83 190 1.0 5.0 0.00 0.00 0.00 89 1013.2
20260903090100 83 182 2.0 5.0 0.00 0.00 0.00 89 1013.3
20260903090002 83 178 1.0 5.0 0.00 0.00 0.00 89 1013.3
20260903083104 84 157 2.0 7.0 0.00 0.00 0.00 89 1013.1
20260903081559 84 178 2.0 5.0 0.00 0.00 0.00 89 1012.9
20260903080002 84 185 1.0 7.0 0.00 0.00 0.00 89 1012.9
20260903074604 84 172 2.0 6.0 0.00 0.00 0.00 89 1013.0
20260903073106 84 167 2.0 5.0 0.00 0.00 0.00 89 1013.1
20260903071601 84 146 0.0 3.0 0.00 0.00 0.00 89 1013.2
20260903070058 84 165 1.0 5.0 0.00 0.00 0.00 88 1013.5
20260903064600 84 155 1.0 3.0 0.00 0.00 0.00 88 1013.7
20260903063059 84 157 1.0 5.0 0.00 0.00 0.00 88 1013.7
20260903061559 85 163 1.0 5.0 0.00 0.00 0.00 88 1014.0
20260903060100 85 147 0.0 5.0 0.00 0.00 0.00 88 1014.0
20260903060002 85 147 0.0 5.0 0.00 0.00 0.00 88 1014.0
20260903054559 85 174 3.0 6.0 0.00 0.00 0.00 88 1014.2
20260903053103 85 166 0.0 1.0 0.00 0.00 0.00 87 1014.3
20260903051604 85 166 1.0 5.0 0.00 0.00 0.00 87 1014.6
20260903050057 85 67 0.0 0.0 0.00 0.00 0.00 87 1014.8
20260903044601 85 67 0.0 1.0 0.00 0.00 0.00 87 1014.9
20260903043058 85 128 0.0 3.0 0.00 0.00 0.00 87 1014.5
20260903041559 85 157 0.0 2.0 0.00 0.00 0.00 87 1014.5
20260903040058 85 163 1.0 6.0 0.00 0.00 0.00 87 1014.3
20260903034600 86 80 0.0 3.0 0.00 0.00 0.00 87 1014.3
20260903033058 86 157 0.0 4.0 0.00 0.00 0.00 86 1014.1
20260903031558 86 159 0.0 4.0 0.00 0.00 0.00 85 1013.9
20260903030057 86 82 0.0 2.0 0.00 0.00 0.00 84 1013.7
20260903024558 86 59 0.0 4.0 0.00 0.00 0.00 83 1013.5
20260903023059 87 103 1.0 6.0 0.00 0.00 0.00 82 1013.0
20260903021557 87 34 1.0 7.0 0.00 0.00 0.00 81 1013.0
20260903020059 87 171 1.0 6.0 0.00 0.00 0.00 78 1012.7
20260903014609 88 37 2.0 7.0 0.00 0.00 0.00 77 1012.5
20260903013056 88 184 1.0 8.0 0.00 0.00 0.00 75 1012.3
20260903011557 89 166 4.0 9.0 0.00 0.00 0.00 74 1012.3
20260903010057 89 183 5.0 8.0 0.00 0.00 0.00 72 1012.0
20260903004556 90 178 3.0 11.0 0.00 0.00 0.00 70 1011.7
20260903003056 90 176 6.0 11.0 0.00 0.00 0.00 69 1011.9
20260903001557 91 190 2.0 9.0 0.00 0.00 0.00 67 1011.4
20260903000002 92 182 4.0 10.0 0.00 0.00 0.00 68 1011.2
20260902234602 92 257 4.0 9.0 0.00 0.00 0.00 66 1011.2
20260902233058 93 176 2.0 10.0 0.00 0.00 0.00 64 1011.2
20260902231600 94 183 4.0 10.0 0.00 0.00 0.00 65 1011.0
20260902230110 94 175 2.0 10.0 0.00 0.00 0.00 65 1010.9
20260902230001 94 151 2.0 10.0 0.00 0.00 0.00 65 1010.9
20260902224559 95 149 2.0 9.0 0.00 0.00 0.00 65 1010.9
20260902223113 96 188 2.0 8.0 0.00 0.00 0.00 64 1010.9
20260902221559 96 175 2.0 7.0 0.00 0.00 0.00 63 1011.0
20260902220059 97 192 1.0 7.0 0.00 0.00 0.00 60 1010.9
20260902214558 97 152 3.0 8.0 0.00 0.00 0.00 61 1011.0
20260902213108 98 173 3.0 8.0 0.00 0.00 0.00 62 1011.2
20260902211605 97 202 5.0 9.0 0.00 0.00 0.00 60 1011.4
20260902210103 97 180 2.0 7.0 0.00 0.00 0.00 61 1011.4
20260902204559 97 196 3.0 8.0 0.00 0.00 0.00 60 1011.6
20260902203058 97 209 4.0 9.0 0.00 0.00 0.00 59 1011.8
20260902201558 97 177 3.0 10.0 0.00 0.00 0.00 60 1011.8
20260902200058 97 199 3.0 7.0 0.00 0.00 0.00 62 1012.2
20260902194559 96 211 6.0 9.0 0.00 0.00 0.00 62 1012.5
20260902193104 97 182 4.0 8.0 0.00 0.00 0.00 63 1012.7
20260902191602 96 248 3.0 14.0 0.00 0.00 0.00 63 1013.0
20260902190106 96 205 4.0 9.0 0.00 0.00 0.00 62 1013.1
20260902184619 95 199 6.0 10.0 0.00 0.00 0.00 66 1013.5
20260902183114 95 219 4.0 10.0 0.00 0.00 0.00 68 1013.7
20260902181557 94 192 4.0 9.0 0.00 0.00 0.00 69 1013.9
20260902180057 93 250 3.0 10.0 0.00 0.00 0.00 71 1014.3
20260902174558 93 246 5.0 10.0 0.00 0.00 0.00 71 1014.6
20260902173057 92 234 8.0 15.0 0.00 0.00 0.00 73 1014.8
20260902171602 90 229 5.0 10.0 0.00 0.00 0.00 77 1014.9
20260902170056 89 248 6.0 12.0 0.00 0.00 0.00 78 1015.1
20260902164558 88 205 6.0 13.0 0.00 0.00 0.00 80 1015.4
20260902163101 88 232 5.0 12.0 0.00 0.00 0.00 82 1015.6
20260902161559 87 257 6.0 13.0 0.00 0.00 0.00 84 1015.5
20260902160100 87 234 9.0 11.0 0.00 0.00 0.00 84 1015.6
20260902154558 86 234 5.0 10.0 0.00 0.00 0.00 86 1015.6